• en France
  • Liste des pays
  • À 7 jours
  • Température de l'eau
  • Carte satellitaire
  • Carte météo
  • Widgets météo
  • user-avatar
    Se connecter

    Météo par heure à Arauca

    Ce jour, 20 Août, Lundi

    Heure Température Précipitation Vent Pression Humidité
    00:00 +23°C° 0,2 mm 0 m/s 750 mmHg 91%
    01:00 +23°C° 0,2 mm 0 m/s 750 mmHg 93%
    02:00 +22°C° 0,1 mm 0 m/s 750 mmHg 94%
    03:00 +24°C° 0,1 mm 1 m/s 750 mmHg 95%
    04:00 +24°C° 0,1 mm 1 m/s 750 mmHg 96%
    05:00 +24°C° 1 mm 1 m/s 750 mmHg 95%
    06:00 +23°C° 1 mm 0 m/s 750 mmHg 94%
    07:00 +23°C° 1 mm 0 m/s 751 mmHg 93%
    08:00 +25°C° 1,7 mm 0 m/s 751 mmHg 89%
    09:00 +28°C° 1,7 mm 1 m/s 751 mmHg 84%
    10:00 +30°C° 1,7 mm 1 m/s 751 mmHg 80%
    11:00 +31°C° 0,7 mm 1 m/s 750 mmHg 73%
    12:00 +32°C° 0,7 mm 1 m/s 750 mmHg 67%
    13:00 +33°C° 0,7 mm 1 m/s 749 mmHg 60%
    14:00 +33°C° 0 mm 1 m/s 749 mmHg 61%
    15:00 +33°C° 0 mm 1 m/s 748 mmHg 61%
    16:00 +33°C° 0 mm 1 m/s 748 mmHg 62%
    17:00 +31°C° 0 mm 1 m/s 748 mmHg 68%
    18:00 +29°C° 0 mm 1 m/s 748 mmHg 74%
    19:00 +25°C° 0 mm 0 m/s 749 mmHg 80%
    20:00 +27°C° 1,4 mm 1 m/s 749 mmHg 84%
    21:00 +26°C° 1,4 mm 1 m/s 750 mmHg 88%
    22:00 +26°C° 1,4 mm 1 m/s 751 mmHg 92%
    23:00 +26°C° 1 mm 1 m/s 751 mmHg 93%

    Demain, 21 Août, Mardi

    Heure Température Précipitation Vent Pression Humidité
    00:00 +25°C° 1 mm 1 m/s 750 mmHg 94%
    01:00 +23°C° 1 mm 0 m/s 750 mmHg 96%
    02:00 +25°C° 0,8 mm 1 m/s 750 mmHg 96%
    03:00 +25°C° 0,8 mm 1 m/s 750 mmHg 96%
    04:00 +24°C° 0,8 mm 1 m/s 750 mmHg 96%
    05:00 +24°C° 0,1 mm 1 m/s 750 mmHg 96%
    06:00 +24°C° 0,1 mm 1 m/s 750 mmHg 95%
    07:00 +25°C° 0,1 mm 1 m/s 751 mmHg 95%
    08:00 +26°C° 0,1 mm 1 m/s 751 mmHg 89%
    09:00 +28°C° 0,1 mm 1 m/s 751 mmHg 83%
    10:00 +29°C° 0,1 mm 1 m/s 751 mmHg 76%
    11:00 +31°C° 0,2 mm 1 m/s 750 mmHg 69%
    12:00 +33°C° 0,2 mm 1 m/s 750 mmHg 62%
    13:00 +32°C° 0,2 mm 0 m/s 749 mmHg 55%
    14:00 +34°C° 0 mm 1 m/s 748 mmHg 57%
    15:00 +33°C° 0 mm 1 m/s 748 mmHg 59%
    16:00 +33°C° 0 mm 1 m/s 747 mmHg 61%
    17:00 +31°C° 0,1 mm 1 m/s 748 mmHg 67%
    18:00 +29°C° 0,1 mm 1 m/s 748 mmHg 74%
    19:00 +28°C° 0,1 mm 1 m/s 749 mmHg 80%
    20:00 +27°C° 0,8 mm 1 m/s 749 mmHg 84%
    21:00 +26°C° 0,8 mm 1 m/s 750 mmHg 87%
    22:00 +26°C° 0,8 mm 1 m/s 751 mmHg 91%
    23:00 +26°C° 1,7 mm 1 m/s 750 mmHg 92%

    Après-demain, 22 Août, Mercredi

    Heure Température Précipitation Vent Pression Humidité
    00:00 +25°C° 1,7 mm 1 m/s 750 mmHg 94%
    01:00 +25°C° 1,7 mm 1 m/s 750 mmHg 95%
    02:00 +23°C° 1,3 mm 0 m/s 750 mmHg 95%
    03:00 +23°C° 1,3 mm 0 m/s 749 mmHg 95%
    04:00 +22°C° 1,3 mm 0 m/s 749 mmHg 95%
    05:00 +23°C° 0,3 mm 0 m/s 750 mmHg 95%
    06:00 +25°C° 0,3 mm 1 m/s 750 mmHg 95%
    07:00 +25°C° 0,3 mm 1 m/s 750 mmHg 95%
    08:00 +26°C° 0,9 mm 1 m/s 751 mmHg 92%
    09:00 +27°C° 0,9 mm 1 m/s 751 mmHg 90%
    10:00 +28°C° 0,9 mm 1 m/s 751 mmHg 88%
    11:00 +29°C° 0,5 mm 1 m/s 750 mmHg 81%
    12:00 +30°C° 0,5 mm 1 m/s 750 mmHg 74%
    13:00 +32°C° 0,5 mm 1 m/s 749 mmHg 67%
    14:00 +32°C° 0,1 mm 1 m/s 748 mmHg 66%
    15:00 +32°C° 0,1 mm 1 m/s 748 mmHg 65%
    16:00 +32°C° 0,1 mm 1 m/s 747 mmHg 64%
    17:00 +30°C° 0,3 mm 1 m/s 748 mmHg 71%
    18:00 +28°C° 0,3 mm 1 m/s 748 mmHg 78%
    19:00 +27°C° 0,3 mm 1 m/s 749 mmHg 85%
    20:00 +24°C° 0,8 mm 0 m/s 749 mmHg 87%
    21:00 +24°C° 0,8 mm 0 m/s 749 mmHg 89%
    22:00 +24°C° 0,8 mm 0 m/s 750 mmHg 92%
    23:00 +23°C° 0,8 mm 0 m/s 749 mmHg 93%

    23 Août, Jeudi

    Heure Température Précipitation Vent Pression Humidité
    00:00 +23°C° 0,8 mm 0 m/s 749 mmHg 94%
    01:00 +23°C° 0,8 mm 0 m/s 749 mmHg 95%
    02:00 +22°C° 0,5 mm 0 m/s 749 mmHg 95%
    03:00 +22°C° 0,5 mm 0 m/s 748 mmHg 96%
    04:00 +22°C° 0,5 mm 0 m/s 748 mmHg 96%
    05:00 +22°C° 0,1 mm 0 m/s 749 mmHg 95%
    06:00 +23°C° 0,1 mm 0 m/s 749 mmHg 95%
    07:00 +23°C° 0,1 mm 0 m/s 750 mmHg 94%
    08:00 +25°C° 0,9 mm 0 m/s 750 mmHg 88%
    09:00 +27°C° 0,9 mm 0 m/s 750 mmHg 82%
    10:00 +28°C° 0,9 mm 0 m/s 750 mmHg 76%
    11:00 +31°C° 0,1 mm 1 m/s 749 mmHg 70%
    12:00 +32°C° 0,1 mm 1 m/s 749 mmHg 64%
    13:00 +33°C° 0,1 mm 1 m/s 748 mmHg 58%
    14:00 +33°C° 0 mm 1 m/s 747 mmHg 60%
    15:00 +33°C° 0 mm 1 m/s 747 mmHg 61%
    16:00 +32°C° 0 mm 1 m/s 746 mmHg 63%
    17:00 +31°C° 0 mm 1 m/s 747 mmHg 69%
    18:00 +29°C° 0 mm 1 m/s 747 mmHg 75%
    19:00 +28°C° 0 mm 1 m/s 748 mmHg 81%
    20:00 +27°C° 0,5 mm 1 m/s 748 mmHg 84%
    21:00 +26°C° 0,5 mm 1 m/s 748 mmHg 87%
    22:00 +24°C° 0,5 mm 0 m/s 749 mmHg 90%
    23:00 +24°C° 1,5 mm 0 m/s 749 mmHg 92%

    24 Août, Vendredi

    Heure Température Précipitation Vent Pression Humidité
    00:00 +23°C° 1,5 mm 0 m/s 748 mmHg 93%
    01:00 +23°C° 1,5 mm 0 m/s 748 mmHg 95%
    02:00 +23°C° 0,7 mm 0 m/s 748 mmHg 96%
    03:00 +23°C° 0,7 mm 0 m/s 748 mmHg 96%
    04:00 +25°C° 0,7 mm 1 m/s 748 mmHg 96%
    05:00 +25°C° 0,4 mm 1 m/s 748 mmHg 96%
    06:00 +25°C° 0,4 mm 1 m/s 749 mmHg 95%
    07:00 +26°C° 0,4 mm 1 m/s 749 mmHg 95%
    08:00 +27°C° 1,4 mm 1 m/s 749 mmHg 91%
    09:00 +28°C° 1,4 mm 1 m/s 749 mmHg 86%
    10:00 +30°C° 1,4 mm 1 m/s 750 mmHg 82%
    11:00 +30°C° 1,4 mm 1 m/s 749 mmHg 77%
    12:00 +31°C° 1,4 mm 1 m/s 748 mmHg 73%
    13:00 +31°C° 1,4 mm 1 m/s 748 mmHg 69%
    14:00 +31°C° 0 mm 1 m/s 747 mmHg 69%
    15:00 +31°C° 0 mm 1 m/s 747 mmHg 70%
    16:00 +31°C° 0 mm 1 m/s 747 mmHg 70%
    17:00 +30°C° 0 mm 1 m/s 747 mmHg 75%
    18:00 +28°C° 0 mm 1 m/s 748 mmHg 79%
    19:00 +25°C° 0 mm 0 m/s 748 mmHg 84%
    20:00 +24°C° 0,2 mm 0 m/s 749 mmHg 85%
    21:00 +24°C° 0,2 mm 0 m/s 749 mmHg 87%
    22:00 +23°C° 0,2 mm 0 m/s 749 mmHg 89%
    23:00 +23°C° 0,4 mm 0 m/s 749 mmHg 90%

    25 Août, Samedi

    Heure Température Précipitation Vent Pression Humidité
    00:00 +23°C° 0,4 mm 0 m/s 749 mmHg 90%
    01:00 +23°C° 0,4 mm 0 m/s 749 mmHg 91%
    02:00 +23°C° 0,4 mm 0 m/s 749 mmHg 92%
    03:00 +25°C° 0,4 mm 1 m/s 749 mmHg 93%
    04:00 +24°C° 0,4 mm 1 m/s 749 mmHg 93%
    05:00 +24°C° 0,5 mm 1 m/s 750 mmHg 94%
    06:00 +24°C° 0,5 mm 1 m/s 750 mmHg 96%
    07:00 +25°C° 0,5 mm 1 m/s 751 mmHg 97%
    08:00 +25°C° 0,6 mm 1 m/s 751 mmHg 95%
    09:00 +26°C° 0,6 mm 1 m/s 751 mmHg 94%
    10:00 +26°C° 0,6 mm 1 m/s 751 mmHg 93%
    11:00 +27°C° 0,3 mm 1 m/s 751 mmHg 88%
    12:00 +28°C° 0,3 mm 1 m/s 750 mmHg 83%
    13:00 +29°C° 0,3 mm 2 m/s 749 mmHg 78%
    14:00 +29°C° 0,2 mm 1 m/s 749 mmHg 76%
    15:00 +29°C° 0,2 mm 1 m/s 748 mmHg 74%
    16:00 +30°C° 0,2 mm 1 m/s 748 mmHg 72%
    17:00 +28°C° 0,1 mm 1 m/s 748 mmHg 77%
    18:00 +27°C° 0,1 mm 1 m/s 749 mmHg 83%
    19:00 +24°C° 0,1 mm 0 m/s 750 mmHg 88%
    20:00 +23°C° 0,1 mm 0 m/s 750 mmHg 89%
    21:00 +23°C° 0,1 mm 0 m/s 751 mmHg 90%
    22:00 +23°C° 0,1 mm 0 m/s 751 mmHg 91%
    23:00 +22°C° 0,1 mm 0 m/s 751 mmHg 92%
    Voir plus